TKSAT-1 (TUPAC KATARI)

Last updated on Thu Nov 21 2024 00:02:42 GMT+0000 (Coordinated Universal Time)

1 39481U 13075A 24325.32618860 -.00000193 00000+0 00000+0 0 9993 2 39481 0.0092 72.5569 0002977 186.0299 191.4740 1.00270135 39830
UTC large
Height (km)
Speed (km/s)
/
Latitude / Longitude
Inclination (degrees)
Orbital Period (minutes)
Azimuth
Elevation
Range (km)
Doppler Factor

Next 0 passes for location: London (51.5072 / 0.1276)

Sorry there are no passes over London.